STARLINK-1453, 45670

Orbit data source: Space-Track

STARLINK-1453, 45670 is a payload satellite owned by SpaceX/Seattle (US) in LEO that was launched on Thu, 04 Jun 2020 UTC via an FALCON 9 launch vehicle from the Air Force Eastern Test Range (AFETR). Payload-class satellites include a variety of spacecraft equipped with specific instruments for various scientific and technological missions. These include communications satellites like Starlink; space stations such as the ISS; scientific satellites like the Hubble; Earth observation satellites from companies like Planet Labs, Umbra, and HawkEye 360; GPS; miniature CubeSats for education and research; and military/defense satellites.

Loading next visibility...
Identifier
45670, 2020-035P
Orbit
LEO
Country
Flag of USUS
Related business
Manufacturer
SpaceX/Seattle
Mission
Operational Commercial Communications
Bus & Motor
STARLINK, Unknown motor
Mass
260 kg wet, ~248 kg dry
Launch date (UTC)
2020-06-04 (5 years ago)
Launch vehicle
FALCON 9
Launch site
Air Force Eastern Test Range (AFETR)
Object type
Payload
Rocket body
Debris
Shape & HBR
Box + 1 Pan, 10.1 m
Radar Cross Section
13.562 m², Large (>1 m²)

Expand to show TLE details & history
Last TLE update: 1 day ago

TLE from 1 day ago
0 STARLINK-1453
1 45670U 20035P   25300.21772647  .00001552  00000-0  12303-3 0  9993
2 45670  53.0548 275.7999 0001477  97.8670 262.2487 15.06411887298925
Epoch: 2025-10-27T05:13Z
TLE epoch observation values (Epoch: 2025-10-27T05:13:31.567Z)
Latitude
0.00003°
Longitude
161.59566°
Altitude
548.192 km
Speed
7.589 km/s
True Right ascension
18h 23m 11s
True Declination
0° 00' 00"
Sunlit
Object was in daylight at epoch
Visualization orbit readout
Latitude
Unknown
Longitude
Unknown
Altitude
Unknown
Speed
Unknown
Apparent Right ascension
Unknown
Apparent Declination
Unknown
Sunlit
N/A
Visualization observer readout
Local Sidereal Time
07:40:55
Azimuth
Unknown
Elevation
Unknown
Doppler factor
Unknown
Orbital elements
Apogee altitude
548.469 km
Perigee altitude
546.423 km
Semi-major axis
6,925.583 km
Eccentricity
0.00015
Inclination
53.0548°
RAAN
275.7999°
Arg. of periapsis
97.867°
True anomaly
262.23193°
Mean anomaly
262.2487°
Eccentric anomaly
262.24031°
Mean motion
3.76581 °/min
Orbital period
95.6 mins
BSTAR
0.00012303
Loading maneuver chart data...
Computing Atmospheric mass density...

Documentation

Showing up to 5 results
|